Flag for Lebanon Weather past 2 weeks in Zahlé, Lebanon

Now
75 °F

Passing clouds.


Feels Like: 77 °F
Forecast: 59 / 85 °F
Wind: 2 mph from Southeast

Location: Beirut Airport

Current Time: Jul 2, 2015 at 7:18:01 AM

Latest Report: Jul 2, 2015 at 6:00 AM


Visibility: 5 mi

Pressure: 29.92 "Hg

Humidity: 74%

Dew point: 66 °F

Location of ZahléLocation

Historic Weather in Zahlé — Graph

°F

Zahlé temperature yesterday

Maximum temperature yesterday: 82 °F (at 3:00 PM)
Minimum temperature yesterday: 73 °F (at 5:00 AM)
Average temperature yesterday: 78 °F

Past Weeks' High & Low Weather Summary

 TemperatureHumidityPressure
High82 °F (Jun 18, 3:00 PM)83% (Jun 20, 3:00 AM)30.01 "Hg (Jun 20, 3:00 AM)
Low72 °F (Jun 17, 6:00 AM)37% (Jun 19, 8:00 AM)29.62 "Hg (Jun 28, 3:00 AM)
Average78 °F65%29.85 "Hg
* Reported Jun 17 6:00 AM — Jul 2 6:00 AM, Zahlé, Weather by CustomWeather, © 2015

Note: Actual official high and low records may vary slightly from our data, if they occured in-between our weather recording intervals... More about our weather records

Advertising

Zahlé weather history for previous 24 hours

 ConditionsComfort  
Time TempWeatherWind HumidityBarometerVisibility
6:00 AM
Thu, Jul 2
75 °FPassing clouds.2 mph74%29.92 "Hg5 mi
5:00 AM75 °FPassing clouds.5 mph74%29.92 "Hg5 mi
4:00 AM75 °FPassing clouds.3 mph74%29.92 "Hg5 mi
3:00 AM75 °FPassing clouds.5 mph74%29.92 "Hg5 mi
2:00 AM77 °FPassing clouds.5 mph74%29.92 "Hg5 mi
1:00 AM77 °FPassing clouds.5 mph69%29.92 "Hg5 mi
12:00 AM75 °FPassing clouds.6 mph74%29.92 "Hg5 mi
11:00 PM
Wed, Jul 1
77 °FPassing clouds.6 mph69%29.92 "Hg5 mi
10:00 PM77 °FPassing clouds.7 mph69%29.92 "Hg5 mi
9:00 PM79 °FPassing clouds.9 mph65%29.92 "HgN/A
8:00 PM79 °FPassing clouds.8 mph65%29.92 "HgN/A
7:00 PM81 °FSunny.9 mph62%29.92 "HgN/A
6:00 PM82 °FSunny.10 mph55%29.92 "HgN/A
5:00 PM82 °FSunny.10 mph55%29.92 "HgN/A
4:00 PM82 °FSunny.14 mph58%29.95 "HgN/A
3:00 PM82 °FPassing clouds.16 mph58%29.95 "Hg5 mi
2:00 PM81 °FPassing clouds.15 mph62%29.98 "Hg5 mi
1:00 PM81 °FPassing clouds.15 mph62%29.98 "Hg5 mi
12:00 PM81 °FPassing clouds.13 mph62%29.98 "Hg5 mi
11:00 AM79 °FScattered clouds.13 mph65%30.01 "Hg5 mi
10:00 AM81 °FScattered clouds.10 mph62%30.01 "Hg5 mi
9:00 AM79 °FPassing clouds.3 mph61%30.01 "Hg5 mi
8:00 AM77 °FPassing clouds.5 mph61%29.98 "Hg5 mi
7:00 AM73 °FPartly sunny.5 mph61%29.98 "HgN/A
Weather by CustomWeather, © 2015

See weather overviewHow to use our weather pages